SCP
0 0 0 0 0 0 0 0 0 0 -0 -0 -0 -0 -0 -0 -0 -0 -0 -0 -0 -0 -0 -0 -0 -0 0 0 0 0 0 0 0 0 -0 -0 -0 -0 0 -0 0 0 0 0 0 0 0
0 0 0 0 0 0 0 0 0 -0 -0 -0 -0 -0 -0 -0 -0 -0 -0 -0 -0 -0 -0 -0 -0 -0 0 0 0 0 -0 0 -0 -0 -0 -0 -0 -0 -0 0 -0 0 0 0 0 0 0
0 0 0 0 0 0 0 0 0 0 -0 -0 -0 -0 -0 -0 -0 -0 -0 -0 -0 -0 -0 -0 0 0 -0 0 0 0 0 -0 -0 -0 -0 -0 0 -0 0 -0 0 -0 0 0 0 0 0
0 0 0 0 0 0 0 0 0 0 -0 -0 -0 -0 -0 -0 -0 -0 -0 -0 -0 -0 0 0 0 0 0 0 0 0 0 -0 -0 -0 -0 -0 -0 0 0 -0 0 0 0 0 0 0 0
0 0 0 0 0 0 0 0 0 0 -0 -0 -0 -0 -0 -0 -0 -0 -0 -0 0 0 0 0 0 0 0 0 0 0 0 -0 -0 -0 -0 -0 -0 0 0 -0 -0 0 -0 0 0 0 -0
0 0 0 0 0 0 0 0 0 0 -0 -0 -0 -0 -0 -0 -0 -0 -0 0 -0 0 0 0 0 0 0 0 0 0 0 0 -0 0 0 -0 -0 0 0 -0 -0 -0 0 0 0 0 -0
0 0 0 0 0 0 0 0 0 0 0 -0 -0 -0 -0 -0 -0 -0 0 0 0 0 0 0 0 0 0 0 0 0 0 -0 -0 -0 -0 0 0 0 0 0 0 -0 0 -0 0 0 -0
0 0 0 0 0 0 0 0 0 0 0 0 0 -0 -0 -0 -0 -0 0 0 0 0 0 0 0 0 0 0 0 0 0 0 -0 -0 0 0 0 0 0 0 0 -0 -0 0 -0 -0 -0
0 0 0 0 0 0 0 0 0 0 0 0 0 0 -0 -0 -0 0 0 -0 0 0 0 0 0 0 0 0 0 0 -0 0 -0 -0 -0 0 0 0 0 0 0 0 0 0 0 -0 0
0 0 0 0 0 0 0 0 0 0 0 0 0 0 0 -0 0 0 0 0 0 -0 0 0 0 0 0 0 0 0 0 0 0 -0 -0 0 0 0 0 0 0 0 0 0 0 -0 -0
0 0 0 0 0 0 0 0 0 0 0 0 0 0 0 0 0 0 0 0 0 0 0 0 0 0 0 0 0 0 0 0 0 0 0 0 0 0 0 0 0 0 0 0 0 0 -0
0 0 0 0 0 0 0 0 0 0 0 0 0 0 0 -0 0 0 0 0 0 0 0 0 0 0 0 0 0 0 0 0 0 0 0 0 0 0 0 0 0 0 0 0 0 0 -0
0 0 0 0 0 0 0 0 0 0 0 0 0 0 0 0 0 0 0 0 0 0 0 0 0 0 0 0 0 0 0 0 0 0 0 0 0 0 0 0 0 0 0 0 0 0 -0
0 0 0 0 0 0 0 0 0 0 0 0 0 0 -0 0 0 0 0 0 0 0 0 0 0 0 0 0 0 0 0 0 0 0 0 0 0 0 0 0 0 0 0 0 0 0 0
0 0 0 0 0 0 0 0 0 0 0 0 0 0 0 0 0 0 0 0 0 0 0 0 0 0 0 0 0 0 0 0 0 0 0 0 0 0 0 0 0 0 0 0 0 0 0
0 0 0 0 0 0 0 0 0 0 0 0 0 0 0 0 0 0 0 0 0 0 0 0 0 0 0 0 0 0 0 0 0 0 0 0 0 0 0 0 0 0 0 0 0 0 0
0 0 0 0 0 0 0 0 0 0 0 0 0 0 0 0 0 0 0 0 0 0 0 0 0 0 0 0 0 0 0 0 0 0 0 0 0 0 0 0 0 0 0 0 0 0 0
0 0 0 0 0 0 0 0 0 0 0 -0 0 0 0 0 0 0 0 0 0 0 0 0 0 0 0 0 0 0 0 0 0 0 0 0 -0 0 0 0 0 0 0 0 0 0 0
0 0 0 0 0 0 0 0 0 0 0 0 0 0 0 0 0 0 0 0 0 0 0 0 0 0 0 0 0 0 0 0 0 0 0 0 0 0 0 0 0 0 0 0 0 0 0
0 0 0 0 0 0 0 0 0 0 0 0 0 0 0 0 0 0 0 0 0 0 0 0 0 0 0 0 0 0 0 0 0 0 0 0 0 0 0 0 0 0 0 0 0 0 0
0 0 0 0 0 0 0 0 0 0 0 0 0 0 0 0 0 0 0 0 0 0 0 0 0 0 0 0 0 0 0 0 0 0 0 0 0 0 0 0 0 0 0 0 0 0 0
0 0 0 0 0 0 0 0 0 0 0 0 0 0 0 0 0 0 0 0 0 0 0 0 0 0 0 0 0 0 0 0 0 0 0 0 0 0 0 0 0 0 0 0 0 0 0
0 0 0 0 0 0 0 0 0 0 0 0 0 0 0 0 0 0 0 0 0 0 0 0 0 0 0 0 0 0 0 0 0 0 0 0 0 0 0 0 0 0 0 0 0 0 0
0 0 0 0 0 0 0 0 0 0 0 0 0 0 0 0 0 0 0 0 0 0 0 0 0 0 0 0 0 0 0 0 0 0 0 0 0 0 0 0 0 0 0 0 0 0 0
0 0 0 0 0 0 0 0 0 0 0 0 0 0 0 0 0 0 0 0 0 0 0 0 0 0 0 0 0 0 0 0 0 0 0 0 0 0 0 0 0 0 0 0 0 0 0
0 0 0 0 0 0 0 0 0 0 0 0 0 0 0 0 0 0 0 0 0 0 0 0 0 0 0 0 0 0 0 0 0 0 0 0 0 0 0 0 0 0 0 0 0 0 0
0 0 0 0 0 0 0 0 0 0 0 0 0 0 0 0 0 0 0 0 0 0 0 0 0 0 0 0 0 0 0 0 0 0 0 0 0 0 0 0 0 0 0 0 1 0 0
0 0 0 0 0 0 0 0 0 0 0 0 0 0 0 0 0 0 0 0 0 0 0 0 0 0 0 0 0 0 0 0 0 0 0 0 0 0 0 0 0 0 0 0 1 0 0
0 0 0 0 0 0 0 0 0 0 0 0 0 0 0 0 0 0 0 0 0 0 0 0 0 0 0 0 0 0 0 0 0 0 0 0 0 0 0 0 0 0 0 1 0 0 0
Wind_Speed_500mb
20 20 19 19 22 23 25 26 27 28 28 29 30 31 33 34 34 34 33 31 27 23 20 16 12 9 5 6 10 10 16 26 24 14 6 5 13 6 5 2 7 13 8 18 13 17 26
25 21 20 21 23 25 25 27 28 29 31 32 33 34 34 36 36 36 35 31 26 21 18 12 7 6 2 6 15 15 15 23 22 14 8 8 8 11 9 6 5 13 26 17 17 21 14
24 21 24 25 25 27 28 28 30 31 32 34 34 35 36 37 38 37 34 29 24 18 14 9 6 5 6 9 15 14 20 20 18 15 10 7 7 9 8 11 7 21 15 13 10 11 4
23 23 25 26 27 29 30 32 32 33 34 36 37 38 38 38 39 37 35 26 20 12 7 6 5 4 6 10 10 14 20 23 23 17 11 4 13 13 6 28 10 7 3 5 11 15 15
22 23 23 26 29 31 33 35 36 36 36 37 39 39 38 39 39 38 28 17 7 0 3 5 4 3 2 10 8 12 20 20 20 16 9 1 10 11 16 20 9 3 7 8 3 23 15
23 23 24 27 31 33 34 37 39 39 38 39 40 41 39 38 38 30 22 6 6 1 4 5 6 2 4 11 15 17 23 23 16 19 10 7 8 7 5 12 5 6 8 5 9 14 20
24 25 26 29 32 35 36 37 40 42 42 41 40 41 39 37 38 16 15 0 5 4 11 7 3 1 1 8 16 18 23 27 23 11 7 6 7 11 9 3 5 6 5 4 6 6 15
26 28 30 32 34 36 37 39 41 43 44 43 41 41 39 35 30 15 12 9 13 8 12 13 27 32 21 5 6 20 24 14 10 16 8 5 10 3 9 9 9 6 8 5 3 5 11
27 29 32 34 36 37 38 40 42 44 45 44 42 41 38 34 15 14 12 12 16 14 5 7 9 14 13 15 10 21 27 15 16 15 13 14 10 13 3 7 3 3 5 7 9 4 3
29 30 33 36 38 39 40 40 43 45 45 44 42 41 39 33 8 19 6 14 19 1 3 1 4 4 17 14 8 24 27 13 6 19 16 9 4 9 7 4 1 6 4 8 12 11 7
31 32 33 35 39 40 41 41 42 45 47 45 41 39 36 32 27 12 6 12 7 3 4 3 6 8 18 12 20 16 30 11 18 18 12 10 14 11 4 6 6 3 2 2 6 2 4
33 34 35 37 40 43 42 42 43 45 47 47 40 38 38 32 22 6 6 6 3 3 4 5 7 10 13 2 5 12 11 13 11 10 7 7 3 3 6 5 2 5 5 7 4 3 8
37 36 37 37 40 44 43 43 44 46 47 48 40 36 38 28 15 8 5 4 3 5 4 4 3 8 13 10 7 10 20 20 15 15 14 5 5 3 4 4 5 3 4 5 2 4 6
37 39 38 38 40 43 43 44 45 46 48 50 41 37 32 23 18 11 11 4 7 1 3 3 4 7 14 12 3 6 18 19 4 6 8 20 22 13 9 12 6 1 5 2 6 5 11
42 41 39 39 39 42 43 43 45 46 47 50 43 34 14 13 14 21 13 5 5 7 2 7 3 7 6 6 7 6 11 22 15 15 14 10 10 5 13 13 14 10 9 2 5 2 7
39 38 37 39 40 41 41 41 44 44 44 48 46 20 5 6 20 27 4 4 5 7 5 2 1 4 11 19 14 15 13 12 12 22 15 13 6 6 3 8 11 10 20 6 1 6 13
45 41 38 39 39 38 37 38 42 42 40 41 30 4 8 23 25 9 6 8 9 13 11 5 2 2 4 9 8 14 17 8 7 14 11 15 8 6 5 15 18 9 8 4 3 5 12
35 35 35 35 34 31 31 34 37 38 36 32 11 3 16 8 5 2 5 8 3 7 6 9 5 8 6 9 9 10 12 5 13 23 21 18 8 17 27 2 7 8 14 16 13 10 6
30 30 30 29 26 24 26 29 31 31 33 38 20 3 13 6 5 5 3 5 7 4 7 4 4 8 5 4 6 7 10 8 9 15 17 20 12 20 16 7 5 13 12 12 3 2 18
29 24 21 18 17 19 21 22 24 25 27 27 7 2 3 4 5 4 2 1 4 6 7 7 5 3 4 3 5 10 7 5 5 5 4 24 10 17 20 15 5 10 15 16 18 9 10
26 20 12 9 10 18 15 16 20 22 22 12 5 3 1 5 5 3 1 2 3 2 6 1 3 6 5 5 4 6 3 4 7 11 5 13 9 9 15 6 16 12 19 23 23 17 12
18 16 8 4 10 17 13 13 17 19 18 4 4 3 3 1 3 6 3 4 3 4 3 5 5 3 9 7 3 7 6 2 4 4 4 1 3 5 9 12 16 13 17 25 25 16 26
15 11 4 6 10 15 12 12 15 17 16 4 3 3 2 1 1 6 5 1 3 8 4 7 3 5 19 10 5 5 9 14 8 2 3 4 8 7 6 2 14 10 25 19 10 11 11
18 5 5 7 12 11 11 12 15 15 14 11 3 2 2 2 3 3 1 3 2 7 3 7 10 2 4 3 21 11 8 6 5 12 6 4 4 3 3 6 12 4 7 6 14 17 19
15 10 7 8 9 8 10 13 15 15 16 13 4 1 0 3 4 6 8 5 9 3 4 3 9 6 5 12 5 5 3 3 1 5 8 3 4 1 6 13 5 5 11 13 16 10 24
19 13 9 8 15 12 8 10 12 13 15 12 2 5 1 3 5 4 3 2 3 4 2 4 4 4 7 3 5 8 9 6 7 4 3 5 5 5 3 8 13 6 9 5 4 16 23
19 17 13 6 8 7 8 11 10 11 13 10 4 4 2 5 7 8 7 3 4 1 2 5 8 2 5 5 6 7 6 1 10 11 7 4 2 9 9 10 9 6 13 13 10 8 8
18 16 16 14 10 9 13 12 11 10 9 7 6 5 5 8 19 15 14 8 5 3 3 1 2 1 2 4 5 6 6 6 5 0 4 9 9 7 4 7 14 5 12 9 13 14 11
19 20 17 16 18 15 13 12 15 12 8 6 4 12 16 17 17 20 26 26 30 22 4 2 3 2 3 6 2 4 4 5 4 5 4 7 5 3 10 2 3 1 13 17 9 9 12
Wind_Direction_500mb
358 1 1 359 356 356 353 350 350 348 346 344 343 340 338 336 333 329 324 320 317 317 319 318 322 337 31 88 73 77 140 158 162 170 200 101 43 35 43 56 112 111 69 54 102 135 138
2 3 8 4 1 357 356 353 349 347 346 345 343 341 339 338 334 331 326 319 313 311 309 302 305 324 18 134 91 89 117 154 153 175 183 91 38 41 78 73 39 96 91 91 99 115 133
3 11 16 11 7 2 358 355 350 347 345 343 342 341 340 339 335 333 327 316 311 304 291 277 276 288 221 157 128 92 140 156 156 176 158 91 32 51 120 102 108 114 100 102 98 117 104
3 19 13 10 7 3 359 356 352 347 344 342 341 341 341 340 337 335 326 317 310 297 269 239 248 257 216 183 160 121 153 162 169 163 134 99 5 89 83 122 91 101 128 176 168 157 168
7 7 5 2 1 360 357 354 352 348 344 340 340 340 342 342 340 340 335 337 343 251 196 221 228 196 202 198 180 162 157 167 163 153 144 28 95 83 118 129 127 203 262 234 251 193 164
353 354 353 352 353 353 353 352 351 349 344 340 338 339 342 342 341 347 351 40 56 149 192 224 229 223 201 144 150 165 167 150 148 152 114 95 97 128 123 190 166 219 244 224 251 197 204
344 343 344 344 346 347 348 349 350 349 345 340 337 337 342 342 342 360 355 55 322 304 247 227 181 259 246 120 155 170 165 148 141 136 128 35 141 103 120 174 96 155 234 236 256 213 209
338 339 338 338 341 342 343 343 346 348 346 340 336 336 341 342 343 17 57 81 58 338 312 255 242 248 235 255 158 161 155 158 143 137 128 137 110 128 113 129 84 18 307 340 259 112 222
330 332 334 334 336 336 337 338 341 344 344 340 335 335 339 343 346 6 83 41 358 342 258 285 228 234 217 198 190 170 168 149 134 137 157 166 129 139 145 129 352 6 31 340 334 332 156
319 323 329 331 333 333 332 333 336 340 342 339 333 333 336 345 348 346 164 358 343 356 344 183 228 209 184 165 175 173 178 158 126 152 148 150 137 158 132 68 161 322 220 310 329 341 328
313 316 321 326 330 330 330 328 332 335 339 337 332 329 329 332 323 333 249 334 3 359 165 102 146 165 165 184 138 176 174 178 154 150 188 153 167 161 158 84 181 351 182 358 11 318 308
310 312 315 321 327 328 327 325 328 332 336 333 329 324 317 319 317 292 208 321 107 249 202 112 134 159 160 202 121 129 161 159 119 119 64 128 206 166 96 92 140 82 253 55 93 344 272
304 305 309 315 322 327 325 323 324 329 333 329 327 317 307 304 288 269 206 170 190 212 346 68 113 168 173 158 118 158 168 172 180 170 179 131 163 109 160 201 123 174 18 354 266 12 329
297 300 302 307 315 324 323 322 323 327 331 327 326 316 301 285 261 223 180 142 215 127 274 359 50 105 185 158 127 122 149 179 109 137 166 218 221 191 163 232 256 127 278 223 272 292 306
296 295 298 301 309 318 321 321 322 326 332 328 328 326 294 239 210 181 166 185 234 200 291 343 107 152 170 184 181 155 176 193 185 183 195 168 234 231 228 184 199 155 211 94 167 84 275
296 294 297 296 303 313 318 319 320 326 333 331 334 336 354 196 166 162 148 228 238 224 299 206 127 212 165 174 170 183 175 174 192 192 193 188 219 200 128 147 67 234 141 181 220 241 280
291 291 293 294 298 307 313 317 319 326 334 334 336 5 12 134 144 154 185 222 253 252 232 203 182 240 163 152 166 172 188 172 222 174 185 153 230 137 181 203 193 163 192 82 181 236 273
290 291 292 292 296 304 310 316 319 327 337 341 345 199 156 88 128 32 176 192 245 278 208 244 238 235 206 161 149 168 182 234 178 162 182 188 201 231 236 122 327 218 235 193 233 228 230
302 294 293 293 292 299 308 316 319 330 340 348 339 344 177 32 167 151 218 238 239 247 247 209 255 233 176 163 128 156 192 130 152 171 165 172 214 238 244 187 151 225 197 198 138 147 234
320 306 298 297 295 298 311 317 322 334 338 342 342 171 116 206 101 111 96 161 273 221 247 259 277 224 175 128 33 156 144 118 67 39 242 177 171 213 243 240 149 194 190 189 205 202 176
327 322 311 310 311 321 319 320 328 337 339 346 355 52 49 171 181 143 187 329 290 40 211 281 196 241 163 128 104 110 112 87 82 29 65 198 230 212 255 269 216 192 174 177 205 236 250
337 327 314 273 314 321 327 330 341 343 348 5 12 359 359 102 293 189 145 169 285 334 275 82 101 93 165 128 23 147 150 122 111 70 93 324 230 204 259 198 207 222 221 198 218 237 255
343 328 301 272 304 311 332 340 349 353 360 5 351 352 335 35 130 192 176 183 120 320 181 58 337 124 93 74 35 31 83 86 80 335 143 212 169 174 246 311 164 212 210 195 201 225 261
322 332 327 213 267 294 327 344 349 357 1 8 331 311 287 152 245 203 143 322 195 325 312 25 34 56 81 72 112 95 79 76 60 69 32 163 133 210 149 163 219 68 122 196 229 256 237
307 317 295 294 299 280 297 322 339 352 357 353 313 183 345 267 274 261 253 286 308 312 181 351 40 43 79 137 96 97 41 344 357 25 39 34 153 237 224 209 330 227 219 191 199 252 213
293 308 327 297 292 279 275 288 312 345 354 352 10 200 184 300 206 268 259 325 312 340 161 111 42 51 136 159 167 180 188 170 197 197 86 78 87 236 173 237 228 233 175 140 216 260 178
295 296 290 311 294 282 289 289 297 328 353 2 228 220 231 277 283 195 220 206 160 130 287 316 346 18 56 151 173 184 200 237 187 193 181 199 212 243 228 255 277 232 155 143 213 350 97
315 299 284 276 285 281 269 277 291 308 339 359 249 224 230 266 271 247 232 204 172 209 203 18 266 102 56 137 186 165 192 188 238 202 199 213 195 204 170 229 268 74 132 221 358 355 17
320 309 289 272 266 276 278 273 287 293 312 352 250 246 261 268 267 273 261 254 241 229 233 245 305 231 173 104 161 121 153 171 175 218 186 243 242 274 233 255 127 259 274 303 312 357 13
Wind_Speed_850mb
20 20 19 19 22 23 25 26 27 28 28 29 30 31 33 34 34 34 33 31 27 23 20 16 12 9 5 6 10 10 16 26 24 14 6 5 13 6 5 2 7 13 8 18 13 17 26
25 21 20 21 23 25 25 27 28 29 31 32 33 34 34 36 36 36 35 31 26 21 18 12 7 6 2 6 15 15 15 23 22 14 8 8 8 11 9 6 5 13 26 17 17 21 14
24 21 24 25 25 27 28 28 30 31 32 34 34 35 36 37 38 37 34 29 24 18 14 9 6 5 6 9 15 14 20 20 18 15 10 7 7 9 8 11 7 21 15 13 10 11 4
23 23 25 26 27 29 30 32 32 33 34 36 37 38 38 38 39 37 35 26 20 12 7 6 5 4 6 10 10 14 20 23 23 17 11 4 13 13 6 28 10 7 3 5 11 15 15
22 23 23 26 29 31 33 35 36 36 36 37 39 39 38 39 39 38 28 17 7 0 3 5 4 3 2 10 8 12 20 20 20 16 9 1 10 11 16 20 9 3 7 8 3 23 15
23 23 24 27 31 33 34 37 39 39 38 39 40 41 39 38 38 30 22 6 6 1 4 5 6 2 4 11 15 17 23 23 16 19 10 7 8 7 5 12 5 6 8 5 9 14 20
24 25 26 29 32 35 36 37 40 42 42 41 40 41 39 37 38 16 15 0 5 4 11 7 3 1 1 8 16 18 23 27 23 11 7 6 7 11 9 3 5 6 5 4 6 6 15
26 28 30 32 34 36 37 39 41 43 44 43 41 41 39 35 30 15 12 9 13 8 12 13 27 32 21 5 6 20 24 14 10 16 8 5 10 3 9 9 9 6 8 5 3 5 11
27 29 32 34 36 37 38 40 42 44 45 44 42 41 38 34 15 14 12 12 16 14 5 7 9 14 13 15 10 21 27 15 16 15 13 14 10 13 3 7 3 3 5 7 9 4 3
29 30 33 36 38 39 40 40 43 45 45 44 42 41 39 33 8 19 6 14 19 1 3 1 4 4 17 14 8 24 27 13 6 19 16 9 4 9 7 4 1 6 4 8 12 11 7
31 32 33 35 39 40 41 41 42 45 47 45 41 39 36 32 27 12 6 12 7 3 4 3 6 8 18 12 20 16 30 11 18 18 12 10 14 11 4 6 6 3 2 2 6 2 4
33 34 35 37 40 43 42 42 43 45 47 47 40 38 38 32 22 6 6 6 3 3 4 5 7 10 13 2 5 12 11 13 11 10 7 7 3 3 6 5 2 5 5 7 4 3 8
37 36 37 37 40 44 43 43 44 46 47 48 40 36 38 28 15 8 5 4 3 5 4 4 3 8 13 10 7 10 20 20 15 15 14 5 5 3 4 4 5 3 4 5 2 4 6
37 39 38 38 40 43 43 44 45 46 48 50 41 37 32 23 18 11 11 4 7 1 3 3 4 7 14 12 3 6 18 19 4 6 8 20 22 13 9 12 6 1 5 2 6 5 11
42 41 39 39 39 42 43 43 45 46 47 50 43 34 14 13 14 21 13 5 5 7 2 7 3 7 6 6 7 6 11 22 15 15 14 10 10 5 13 13 14 10 9 2 5 2 7
39 38 37 39 40 41 41 41 44 44 44 48 46 20 5 6 20 27 4 4 5 7 5 2 1 4 11 19 14 15 13 12 12 22 15 13 6 6 3 8 11 10 20 6 1 6 13
45 41 38 39 39 38 37 38 42 42 40 41 30 4 8 23 25 9 6 8 9 13 11 5 2 2 4 9 8 14 17 8 7 14 11 15 8 6 5 15 18 9 8 4 3 5 12
35 35 35 35 34 31 31 34 37 38 36 32 11 3 16 8 5 2 5 8 3 7 6 9 5 8 6 9 9 10 12 5 13 23 21 18 8 17 27 2 7 8 14 16 13 10 6
30 30 30 29 26 24 26 29 31 31 33 38 20 3 13 6 5 5 3 5 7 4 7 4 4 8 5 4 6 7 10 8 9 15 17 20 12 20 16 7 5 13 12 12 3 2 18
29 24 21 18 17 19 21 22 24 25 27 27 7 2 3 4 5 4 2 1 4 6 7 7 5 3 4 3 5 10 7 5 5 5 4 24 10 17 20 15 5 10 15 16 18 9 10
26 20 12 9 10 18 15 16 20 22 22 12 5 3 1 5 5 3 1 2 3 2 6 1 3 6 5 5 4 6 3 4 7 11 5 13 9 9 15 6 16 12 19 23 23 17 12
18 16 8 4 10 17 13 13 17 19 18 4 4 3 3 1 3 6 3 4 3 4 3 5 5 3 9 7 3 7 6 2 4 4 4 1 3 5 9 12 16 13 17 25 25 16 26
15 11 4 6 10 15 12 12 15 17 16 4 3 3 2 1 1 6 5 1 3 8 4 7 3 5 19 10 5 5 9 14 8 2 3 4 8 7 6 2 14 10 25 19 10 11 11
18 5 5 7 12 11 11 12 15 15 14 11 3 2 2 2 3 3 1 3 2 7 3 7 10 2 4 3 21 11 8 6 5 12 6 4 4 3 3 6 12 4 7 6 14 17 19
15 10 7 8 9 8 10 13 15 15 16 13 4 1 0 3 4 6 8 5 9 3 4 3 9 6 5 12 5 5 3 3 1 5 8 3 4 1 6 13 5 5 11 13 16 10 24
19 13 9 8 15 12 8 10 12 13 15 12 2 5 1 3 5 4 3 2 3 4 2 4 4 4 7 3 5 8 9 6 7 4 3 5 5 5 3 8 13 6 9 5 4 16 23
19 17 13 6 8 7 8 11 10 11 13 10 4 4 2 5 7 8 7 3 4 1 2 5 8 2 5 5 6 7 6 1 10 11 7 4 2 9 9 10 9 6 13 13 10 8 8
18 16 16 14 10 9 13 12 11 10 9 7 6 5 5 8 19 15 14 8 5 3 3 1 2 1 2 4 5 6 6 6 5 0 4 9 9 7 4 7 14 5 12 9 13 14 11
19 20 17 16 18 15 13 12 15 12 8 6 4 12 16 17 17 20 26 26 30 22 4 2 3 2 3 6 2 4 4 5 4 5 4 7 5 3 10 2 3 1 13 17 9 9 12
Wind_Direction_850mb
358 1 1 359 356 356 353 350 350 348 346 344 343 340 338 336 333 329 324 320 317 317 319 318 322 337 31 88 73 77 140 158 162 170 200 101 43 35 43 56 112 111 69 54 102 135 138
2 3 8 4 1 357 356 353 349 347 346 345 343 341 339 338 334 331 326 319 313 311 309 302 305 324 18 134 91 89 117 154 153 175 183 91 38 41 78 73 39 96 91 91 99 115 133
3 11 16 11 7 2 358 355 350 347 345 343 342 341 340 339 335 333 327 316 311 304 291 277 276 288 221 157 128 92 140 156 156 176 158 91 32 51 120 102 108 114 100 102 98 117 104
3 19 13 10 7 3 359 356 352 347 344 342 341 341 341 340 337 335 326 317 310 297 269 239 248 257 216 183 160 121 153 162 169 163 134 99 5 89 83 122 91 101 128 176 168 157 168
7 7 5 2 1 360 357 354 352 348 344 340 340 340 342 342 340 340 335 337 343 251 196 221 228 196 202 198 180 162 157 167 163 153 144 28 95 83 118 129 127 203 262 234 251 193 164
353 354 353 352 353 353 353 352 351 349 344 340 338 339 342 342 341 347 351 40 56 149 192 224 229 223 201 144 150 165 167 150 148 152 114 95 97 128 123 190 166 219 244 224 251 197 204
344 343 344 344 346 347 348 349 350 349 345 340 337 337 342 342 342 360 355 55 322 304 247 227 181 259 246 120 155 170 165 148 141 136 128 35 141 103 120 174 96 155 234 236 256 213 209
338 339 338 338 341 342 343 343 346 348 346 340 336 336 341 342 343 17 57 81 58 338 312 255 242 248 235 255 158 161 155 158 143 137 128 137 110 128 113 129 84 18 307 340 259 112 222
330 332 334 334 336 336 337 338 341 344 344 340 335 335 339 343 346 6 83 41 358 342 258 285 228 234 217 198 190 170 168 149 134 137 157 166 129 139 145 129 352 6 31 340 334 332 156
319 323 329 331 333 333 332 333 336 340 342 339 333 333 336 345 348 346 164 358 343 356 344 183 228 209 184 165 175 173 178 158 126 152 148 150 137 158 132 68 161 322 220 310 329 341 328
313 316 321 326 330 330 330 328 332 335 339 337 332 329 329 332 323 333 249 334 3 359 165 102 146 165 165 184 138 176 174 178 154 150 188 153 167 161 158 84 181 351 182 358 11 318 308
310 312 315 321 327 328 327 325 328 332 336 333 329 324 317 319 317 292 208 321 107 249 202 112 134 159 160 202 121 129 161 159 119 119 64 128 206 166 96 92 140 82 253 55 93 344 272
304 305 309 315 322 327 325 323 324 329 333 329 327 317 307 304 288 269 206 170 190 212 346 68 113 168 173 158 118 158 168 172 180 170 179 131 163 109 160 201 123 174 18 354 266 12 329
297 300 302 307 315 324 323 322 323 327 331 327 326 316 301 285 261 223 180 142 215 127 274 359 50 105 185 158 127 122 149 179 109 137 166 218 221 191 163 232 256 127 278 223 272 292 306
296 295 298 301 309 318 321 321 322 326 332 328 328 326 294 239 210 181 166 185 234 200 291 343 107 152 170 184 181 155 176 193 185 183 195 168 234 231 228 184 199 155 211 94 167 84 275
296 294 297 296 303 313 318 319 320 326 333 331 334 336 354 196 166 162 148 228 238 224 299 206 127 212 165 174 170 183 175 174 192 192 193 188 219 200 128 147 67 234 141 181 220 241 280
291 291 293 294 298 307 313 317 319 326 334 334 336 5 12 134 144 154 185 222 253 252 232 203 182 240 163 152 166 172 188 172 222 174 185 153 230 137 181 203 193 163 192 82 181 236 273
290 291 292 292 296 304 310 316 319 327 337 341 345 199 156 88 128 32 176 192 245 278 208 244 238 235 206 161 149 168 182 234 178 162 182 188 201 231 236 122 327 218 235 193 233 228 230
302 294 293 293 292 299 308 316 319 330 340 348 339 344 177 32 167 151 218 238 239 247 247 209 255 233 176 163 128 156 192 130 152 171 165 172 214 238 244 187 151 225 197 198 138 147 234
320 306 298 297 295 298 311 317 322 334 338 342 342 171 116 206 101 111 96 161 273 221 247 259 277 224 175 128 33 156 144 118 67 39 242 177 171 213 243 240 149 194 190 189 205 202 176
327 322 311 310 311 321 319 320 328 337 339 346 355 52 49 171 181 143 187 329 290 40 211 281 196 241 163 128 104 110 112 87 82 29 65 198 230 212 255 269 216 192 174 177 205 236 250
337 327 314 273 314 321 327 330 341 343 348 5 12 359 359 102 293 189 145 169 285 334 275 82 101 93 165 128 23 147 150 122 111 70 93 324 230 204 259 198 207 222 221 198 218 237 255
343 328 301 272 304 311 332 340 349 353 360 5 351 352 335 35 130 192 176 183 120 320 181 58 337 124 93 74 35 31 83 86 80 335 143 212 169 174 246 311 164 212 210 195 201 225 261
322 332 327 213 267 294 327 344 349 357 1 8 331 311 287 152 245 203 143 322 195 325 312 25 34 56 81 72 112 95 79 76 60 69 32 163 133 210 149 163 219 68 122 196 229 256 237
307 317 295 294 299 280 297 322 339 352 357 353 313 183 345 267 274 261 253 286 308 312 181 351 40 43 79 137 96 97 41 344 357 25 39 34 153 237 224 209 330 227 219 191 199 252 213
293 308 327 297 292 279 275 288 312 345 354 352 10 200 184 300 206 268 259 325 312 340 161 111 42 51 136 159 167 180 188 170 197 197 86 78 87 236 173 237 228 233 175 140 216 260 178
295 296 290 311 294 282 289 289 297 328 353 2 228 220 231 277 283 195 220 206 160 130 287 316 346 18 56 151 173 184 200 237 187 193 181 199 212 243 228 255 277 232 155 143 213 350 97
315 299 284 276 285 281 269 277 291 308 339 359 249 224 230 266 271 247 232 204 172 209 203 18 266 102 56 137 186 165 192 188 238 202 199 213 195 204 170 229 268 74 132 221 358 355 17
320 309 289 272 266 276 278 273 287 293 312 352 250 246 261 268 267 273 261 254 241 229 233 245 305 231 173 104 161 121 153 171 175 218 186 243 242 274 233 255 127 259 274 303 312 357 13